Flag for U.S.A. Weather past 2 weeks in Pasco, Washington, U.S.A.

Now
64 °F

Sunny.


Feels Like: 64 °F
Forecast: 44 / 77 °F
Wind: No wind

Location: Tri-Cities Airport

Current Time: Mar 27, 2015 at 12:16:05 PM

Latest Report: Mar 27, 2015 at 11:53 AM


Visibility: 10 mi

Pressure: 30.04 "Hg

Humidity: 63%

Dew point: 51 °F

Location of PascoLocation

Historic Weather in Pasco — Graph

°F

Pasco temperature yesterday

Maximum temperature yesterday: 75 °F (at 4:53 PM)
Minimum temperature yesterday: 44 °F (at 5:53 AM)
Average temperature yesterday: 58 °F

Past Weeks' High & Low Weather Summary

 TemperatureHumidityPressure
High75 °F (Mar 26, 4:53 PM)97% (Mar 19, 3:53 AM)30.40 "Hg (Mar 19, 3:53 AM)
Low32 °F (Mar 19, 5:53 AM)26% (Mar 24, 4:53 PM)29.73 "Hg (Mar 15, 3:53 PM)
Average53 °F67%30.09 "Hg
* Reported Mar 12 10:53 AM — Mar 27 10:53 AM, Pasco, Weather by CustomWeather, © 2015

Note: Actual official high and low records may vary slightly from our data, if they occured in-between our weather recording intervals... More about our weather records

Advertising

Pasco weather history for previous 24 hours

 ConditionsComfort  
Time TempWeatherWind HumidityBarometerVisibility
10:53 AM
Fri, Mar 27
61 °FSunny.6 mph67%30.07 "Hg10 mi
9:53 AM56 °FSunny.No wind75%30.08 "Hg10 mi
8:53 AM52 °FSunny.No wind80%30.08 "Hg10 mi
7:53 AM47 °FSunny.No wind93%30.09 "Hg10 mi
6:53 AM41 °FClear.5 mph96%30.09 "Hg10 mi
5:53 AM41 °FClear.6 mph96%30.08 "Hg10 mi
4:53 AM43 °FClear.No wind97%30.08 "Hg10 mi
3:53 AM43 °FClear.3 mph97%30.09 "Hg10 mi
2:53 AM46 °FClear.3 mph93%30.11 "Hg10 mi
1:53 AM47 °FClear.5 mph93%30.12 "Hg10 mi
12:53 AM48 °FClear.3 mph93%30.13 "Hg10 mi
11:53 PM
Thu, Mar 26
48 °FClear.6 mph89%30.14 "Hg10 mi
10:53 PM50 °FClear.7 mph89%30.14 "Hg10 mi
9:53 PM51 °FClear.5 mph89%30.14 "Hg10 mi
8:53 PM54 °FClear.5 mph80%30.14 "Hg10 mi
7:53 PM60 °FSunny.No wind69%30.13 "Hg10 mi
6:53 PM71 °FSunny.6 mph42%30.14 "Hg10 mi
5:53 PM74 °FSunny.6 mph36%30.15 "Hg10 mi
4:53 PM75 °FSunny.5 mph36%30.17 "Hg10 mi
3:53 PM73 °FSunny.5 mph41%30.19 "Hg10 mi
2:53 PM71 °FSunny.5 mph45%30.21 "Hg10 mi
1:53 PM68 °FSunny.3 mph51%30.24 "Hg10 mi
12:53 PM66 °FSunny.No wind54%30.27 "Hg10 mi
Weather by CustomWeather, © 2015

See weather overviewHow to use our weather pages